Disclaimer

Please do not use the information listed here in-flight or in-navigation, as they are not provided to us by the airports but are provided by volunteers, so they might be outdated.

Search


Regions


Airport information page

Radio informations:
CHITOSE TWR - 118.8 MHz
CHITOSE GND - 121.6 MHz
CHITOSE DEP - 124.7 MHz
CHITOSE CLNC DEL - 121.9 MHz
CHITOSE APP - 120.1 MHz

Airport informations:
Latitude: 42° 46' 30.72" N
Longitude: 141° 41' 32.22" E
Elevation: 82 feet - 25 meters
Operating hours: N/A
Operating agency: Civil government, landing fees and diplomatic clearance may be required
Timezone: UTC+9
Fuel: Jet A, without icing inhibitor.

Jet A1, without icing nhibitor.

Runway information:
01R/19L - 9840 x 200 feet< - >2999 x 61 meters
01L/19R - 9840 x 200 feet< - >2999 x 61 meters

Recent METARs:
RJCC 170933Z 33012KT 4900 -SHSN FEW010 SCT025 BKN045 M11/M16 Q1002 RMK 1ST010 3CU025 6CU045 A2960
RJCC 171000Z 35011KT 9999 -SHSN FEW015 BKN040 M12/M18 Q1002 RMK 1ST015 6CU040 A2961
RJCC 171030Z 32012KT 9999 -SHSN FEW015 BKN040 M11/M20 Q1002 RMK 1ST015 6CU040 A2961

Airport on the map: